User: anonymous   Login
Location: Caltech
(34.1382°N, 118.1253°W)
Time: 21:01:53
(UTC-08:00)
Language:

Cosmos 2251 Rocket - Orbit

View from above orbital plane
View from above orbital plane
View from above satellite
View from above satellite

Ground track
Ground track

The orbit data is extracted from the following two-line orbital elements,

1 22676U 93036B   15060.07271589  .00000146  00000-0  61671-4 0  9991
2 22676 074.0416 276.3339 0018531 151.6001 208.6165 14.33742029135071
Epoch (UTC): 01 March 2015 01:44:42
Eccentricity: 0.0018531
inclination: 74.0416°
perigee height: 766 km
apogee height: 792 km
right ascension of ascending node: 276.3339°
argument of perigee: 151.6001°
revolutions per day: 14.33742029
mean anomaly at epoch: 208.6165°
orbit number at epoch: 13507

The dashed part of the orbit path shows where the satellite is in the earth's shadow,  

DLR